Total_Precipitation_Accumulation
1.39 1.46 1.52 1.54 1.58 1.56 1.53 1.46 1.53 1.60 1.64 1.67 1.74 1.83 1.87 1.89 2.04 2.20 2.20 2.32 2.32 2.34 2.34 2.47 2.61 2.85 2.80 2.63 2.78 2.93 3.15 3.41 3.08 2.78 2.58 2.33 2.32 2.20 2.10 2.00 1.84 1.80 1.64
1.37 1.49 1.69 1.66 1.66 1.63 1.50 1.45 1.51 1.51 1.55 1.59 1.70 1.78 1.77 1.86 2.05 2.13 2.13 2.30 2.36 2.34 2.42 2.53 2.50 2.61 2.69 2.58 2.59 2.64 2.89 3.13 3.03 2.89 2.91 2.74 2.55 2.41 2.38 2.25 1.89 1.74 1.72
1.46 1.52 1.66 1.68 1.64 1.55 1.47 1.44 1.45 1.46 1.50 1.54 1.55 1.60 1.66 1.78 1.95 2.03 2.16 2.27 2.40 2.46 2.45 2.34 2.25 2.39 2.53 2.69 2.69 2.61 2.64 2.76 2.98 2.89 2.84 2.90 2.64 2.43 2.53 2.38 2.15 2.15 1.71
1.26 1.32 1.42 1.39 1.39 1.41 1.43 1.43 1.40 1.45 1.49 1.55 1.56 1.65 1.70 1.75 1.81 1.94 2.08 2.05 2.04 2.04 2.02 2.01 1.99 2.07 2.26 2.67 2.69 2.74 2.75 2.77 2.96 2.97 2.95 2.98 3.02 2.76 2.73 2.53 2.41 2.25 1.96
1.19 1.25 1.34 1.40 1.41 1.43 1.39 1.33 1.39 1.46 1.42 1.55 1.64 1.64 1.69 1.72 1.64 1.74 1.74 1.66 1.74 1.67 1.62 1.61 1.61 1.75 1.79 1.98 2.01 2.35 2.63 2.70 2.79 2.92 2.94 2.97 2.99 3.09 2.79 2.62 2.59 2.51 2.31
0.99 1.09 1.31 1.46 1.49 1.46 1.37 1.37 1.43 1.49 1.55 1.63 1.68 1.66 1.65 1.51 1.66 1.68 1.63 1.56 1.56 1.53 1.48 1.46 1.40 1.47 1.56 1.57 1.55 1.72 1.99 2.28 2.60 2.85 2.88 2.94 3.03 3.10 3.10 2.92 2.81 2.63 2.49
0.98 1.07 1.16 1.28 1.36 1.31 1.25 1.30 1.34 1.42 1.55 1.62 1.69 1.78 1.78 1.81 1.80 1.68 1.57 1.44 1.43 1.41 1.39 1.42 1.22 1.18 1.32 1.24 1.37 1.40 1.46 1.64 1.83 2.24 2.53 2.61 2.76 2.88 3.09 2.99 2.92 2.81 2.68
1.14 1.21 1.21 1.28 1.40 1.41 1.38 1.41 1.51 1.57 1.59 1.64 1.67 1.74 1.82 1.78 1.80 1.62 1.48 1.28 1.29 1.36 1.35 1.37 1.34 1.30 1.32 1.35 1.41 1.34 1.27 1.33 1.42 1.48 1.58 1.81 2.08 2.44 2.76 2.91 3.00 2.97 2.94
1.23 1.34 1.40 1.45 1.55 1.60 1.60 1.67 1.76 1.82 1.71 1.69 1.75 1.82 1.86 1.89 1.87 1.59 1.44 1.27 1.30 1.37 1.32 1.33 1.39 1.31 1.37 1.28 1.29 1.32 1.29 1.25 1.27 1.34 1.29 1.42 1.57 1.79 2.11 2.34 2.51 2.73 2.97
1.41 1.45 1.54 1.67 1.75 1.82 2.00 2.22 2.29 2.28 2.15 2.05 1.90 1.85 1.84 1.88 1.91 1.65 1.54 1.37 1.44 1.53 1.57 1.54 1.51 1.40 1.35 1.27 1.19 1.24 1.22 1.20 1.26 1.27 1.21 1.17 1.19 1.32 1.58 1.73 1.90 2.18 2.46
1.80 1.85 1.87 1.96 2.08 2.16 2.39 2.56 2.59 2.57 2.65 2.57 2.35 2.18 2.12 2.10 2.06 1.86 1.84 1.70 1.79 1.89 1.80 1.68 1.55 1.46 1.25 1.17 1.12 1.11 1.14 1.21 1.31 1.38 1.36 1.28 1.24 1.22 1.29 1.43 1.64 1.79 1.93
1.92 1.99 2.08 2.27 2.21 2.28 2.55 2.61 2.73 2.86 2.86 2.71 2.69 2.56 2.43 2.39 2.18 2.00 1.91 1.81 1.76 1.78 1.78 1.66 1.53 1.43 1.19 1.07 1.01 0.98 1.02 1.00 1.02 1.12 1.18 1.22 1.23 1.16 1.18 1.33 1.54 1.73 1.73
2.09 2.15 2.30 2.49 2.63 2.70 2.86 2.94 2.93 2.92 2.88 2.80 2.81 2.72 2.61 2.55 2.35 1.99 1.80 1.74 1.66 1.54 1.55 1.58 1.50 1.37 1.22 1.07 1.05 1.02 0.95 0.91 0.98 1.03 1.06 1.15 1.19 1.16 1.18 1.31 1.47 1.66 1.68
2.20 2.25 2.38 2.52 2.62 2.70 2.88 2.94 2.93 2.88 2.87 2.90 2.89 2.75 2.62 2.52 2.35 2.09 1.83 1.67 1.58 1.44 1.41 1.49 1.43 1.30 1.15 1.08 1.08 1.00 0.91 0.98 1.08 1.06 1.06 1.14 1.27 1.31 1.31 1.31 1.44 1.55 1.64
2.33 2.42 2.52 2.67 2.79 2.88 2.80 2.87 2.95 2.93 2.83 2.70 2.67 2.64 2.61 2.49 2.39 2.20 1.96 1.79 1.69 1.62 1.52 1.47 1.45 1.35 1.25 1.21 1.23 1.24 1.23 1.21 1.16 1.14 1.19 1.25 1.33 1.40 1.41 1.45 1.51 1.54 1.50
2.42 2.46 2.54 2.62 2.77 2.78 2.76 2.70 2.67 2.58 2.54 2.37 2.38 2.41 2.35 2.30 2.20 1.96 1.83 1.74 1.72 1.75 1.63 1.56 1.63 1.63 1.56 1.49 1.48 1.48 1.45 1.38 1.34 1.37 1.40 1.40 1.38 1.39 1.37 1.46 1.58 1.58 1.54
2.43 2.45 2.45 2.43 2.52 2.63 2.66 2.60 2.50 2.43 2.35 2.22 2.15 2.07 1.98 1.99 1.95 1.90 1.88 1.86 1.81 1.72 1.59 1.63 1.74 1.79 1.81 1.79 1.72 1.61 1.55 1.48 1.43 1.42 1.41 1.42 1.41 1.45 1.48 1.51 1.59 1.63 1.61
2.32 2.36 2.28 2.25 2.34 2.51 2.56 2.58 2.55 2.47 2.40 2.29 2.20 2.11 1.91 1.77 1.74 1.79 1.89 1.86 1.75 1.66 1.62 1.75 1.84 1.87 1.94 1.93 1.82 1.74 1.66 1.57 1.52 1.51 1.54 1.59 1.59 1.59 1.58 1.53 1.55 1.58 1.63
2.30 2.29 2.28 2.29 2.34 2.43 2.51 2.57 2.56 2.46 2.39 2.26 2.05 1.91 1.85 1.75 1.70 1.72 1.68 1.60 1.66 1.73 1.77 1.90 1.94 1.93 1.86 1.79 1.75 1.72 1.65 1.60 1.56 1.57 1.57 1.58 1.58 1.60 1.61 1.61 1.62 1.70 1.68
2.18 2.33 2.36 2.27 2.26 2.34 2.45 2.52 2.50 2.49 2.48 2.41 2.23 1.95 1.77 1.64 1.54 1.59 1.53 1.50 1.56 1.60 1.65 1.74 1.85 1.90 1.87 1.82 1.75 1.67 1.61 1.57 1.52 1.52 1.50 1.51 1.56 1.56 1.52 1.57 1.60 1.57 1.57
2.13 2.15 2.25 2.17 2.12 2.18 2.27 2.30 2.35 2.33 2.25 2.20 2.14 1.99 1.86 1.67 1.63 1.60 1.59 1.57 1.55 1.52 1.57 1.67 1.72 1.70 1.65 1.62 1.62 1.59 1.57 1.58 1.56 1.54 1.57 1.58 1.59 1.56 1.46 1.42 1.43 1.45 1.45
2.22 2.21 2.10 2.07 2.08 2.13 2.17 2.15 2.15 2.10 2.01 1.95 1.89 1.81 1.74 1.60 1.60 1.59 1.54 1.53 1.47 1.41 1.40 1.40 1.44 1.46 1.43 1.40 1.43 1.47 1.47 1.45 1.46 1.45 1.46 1.47 1.49 1.48 1.46 1.46 1.46 1.49 1.56
2.19 2.17 2.08 1.98 1.89 1.97 1.97 1.93 1.90 1.84 1.81 1.76 1.72 1.60 1.52 1.51 1.47 1.42 1.37 1.32 1.27 1.25 1.25 1.28 1.30 1.31 1.27 1.24 1.25 1.29 1.30 1.26 1.27 1.32 1.37 1.41 1.42 1.37 1.37 1.39 1.40 1.46 1.52
2.06 2.03 1.96 1.86 1.72 1.67 1.73 1.81 1.81 1.79 1.76 1.65 1.53 1.44 1.39 1.40 1.35 1.22 1.14 1.10 1.07 1.04 1.06 1.10 1.08 1.05 1.07 1.11 1.13 1.12 1.08 1.05 1.04 1.09 1.11 1.18 1.23 1.21 1.22 1.24 1.23 1.29 1.42
1.82 1.79 1.79 1.77 1.61 1.49 1.56 1.65 1.64 1.58 1.54 1.46 1.33 1.30 1.27 1.21 1.17 1.11 1.07 1.03 1.00 0.99 0.94 0.93 0.94 0.93 0.94 0.93 0.93 0.92 0.89 0.85 0.81 0.84 0.88 0.95 1.04 1.09 1.11 1.15 1.21 1.31 1.40
1.61 1.61 1.59 1.57 1.48 1.36 1.39 1.49 1.50 1.42 1.40 1.30 1.17 1.16 1.17 1.15 1.10 1.08 1.04 0.99 0.97 0.91 0.87 0.86 0.86 0.85 0.83 0.82 0.78 0.75 0.73 0.68 0.68 0.72 0.72 0.80 0.93 1.03 1.06 1.11 1.12 1.18 1.26